Hourly Data Report for October 05, 2016

All times are specified in Local Standard Time (LST). Add 1 hour to adjust for Daylight Saving Time where and when it is observed.

PENTICTON A
BRITISH COLUMBIA

49°27'45.000" N
119°36'08.000" W
344.40 m
1126146
71889
YYF

Download Data

Hourly Data (October 2016)
Hourly Data Report for October 5, 2016
Temp Definition
°C
Dew Point Temp Definition
°C
Rel Hum Definition
%
Wind Dir Definition
10's deg

Wind Spd Definition
km/h
Visibility Definition
km
Stn Press Definition
kPa
Hmdx Definition


Wind Chill Definition


Weather Definition


TIME
00:00 Legend Double Dagger 5.3 2.8 84 36 2 24.1 97.14     LegendNANA
01:00 Legend Double Dagger 5.7 3.4 85 36 5 24.1 97.18     Mostly Cloudy
02:00 Legend Double Dagger 7.9 4.1 77 34 7 24.1 97.19     LegendNANA
03:00 Legend Double Dagger 7.8 4.2 78 35 10 24.1 97.21     LegendNANA
04:00 Legend Double Dagger 7.9 4.5 79 35 7 24.1 97.26     Mostly Cloudy
05:00 Legend Double Dagger 7.9 4.7 80 36 11 24.1 97.30     LegendNANA
06:00 Legend Double Dagger 8.7 4.5 75 36 7 24.1 97.32     LegendNANA
07:00 Legend Double Dagger 8.9 4.9 76 3 8 24.1 97.35     Cloudy
08:00 Legend Double Dagger 10.4 5.4 71 2 4 24.1 97.38     LegendNANA
09:00 Legend Double Dagger 12.2 5.9 65   0 24.1 97.39     LegendNANA
10:00 Legend Double Dagger 13.7 6.1 60   0 24.1 97.38     Mostly Cloudy
11:00 Legend Double Dagger 14.6 5.7 55 14 8 24.1 97.33     LegendNANA
12:00 Legend Double Dagger 15.5 6.6 55 16 11 24.1 97.28     LegendNANA
13:00 Legend Double Dagger 17.3 5.0 44 17 14 24.1 97.22     Mainly Clear
14:00 Legend Double Dagger 18.0 5.4 43 17 13 24.1 97.20     LegendNANA
15:00 Legend Double Dagger 16.9 6.2 49 16 15 24.1 97.22     LegendNANA
16:00 Legend Double Dagger 16.6 4.4 44 23 7 24.1 97.24     Mainly Clear
17:00 Legend Double Dagger 15.3 6.1 54 33 10 24.1 97.27     LegendNANA
18:00 Legend Double Dagger 14.5 6.9 60 36 1 24.1 97.30     LegendNANA
19:00 Legend Double Dagger 10.8 5.0 67 32 9 24.1 97.35     Mainly Clear
20:00 Legend Double Dagger 11.4 5.3 66 36 9 24.1 97.40     LegendNANA
21:00 Legend Double Dagger 9.6 4.8 72 36 1 24.1 97.46     LegendNANA
22:00 Legend Double Dagger 10.1 4.9 70 35 5 24.1 97.50     Mostly Cloudy
23:00 Legend Double Dagger 10.2 5.2 71 36 2 24.1 97.54     LegendNANA

Notes on Data Quality.

Legend

  • E = Estimated
  • M = Missing
  • NA = Not Available
  • ‡ = Partner data that is not subject to review by the National Climate Archives
Date modified: